COSMOS 2475 (743) (37869 NORAD) Tracking and Keplerian Element Data

This shows tracking and keplerian element data for the satellite.

Feedback or suggestion? Click here.




ElementValue
Catalog37869
NameCOSMOS 2475 (743)
Epoch Orbit10994
Epoch Day353.59125692
Epoch Year2025
RAAN79.0372
Inclination65.1796
Eccentricity0.0026449
Argument of Perigee248.8375
Mean Anonmoly152.0175
Mean Motion2.13101629
Decay Rate-2.6E-07
L11 37869U 11064C 25353.59125692 -.00000026 00000+0 00000+0 0 9999
L22 37869 65.1796 79.0372 0026449 248.8375 152.0175 2.13101629109948



Live tracking and technical data element details for COSMOS 2475 (743) (NORAD 37869). COSMOS 2475 (743) can be tracked NOW for your location showing map with azimuth and elevation plus other details from your city location.







IsCatalogInMostPopularTable: catalog: 37869, numindb: 393
Update: records affected: 1



GetName: 37869 COSMOS 2475 (743)

Hit Count: updated at: Tue, 20 Jan 2026 18:42:08 GMT